Location: Unspecified
(0.0000°N, 0.0000°E)
Time: 14:05:55
(UTC+00:00)

Altair - Pass Details

Date: 31 October 2021
Orbit: 1502 x 1682 km, 47.2° (Epoch: 26 November)

Event Time Altitude Azimuth Distance (km) Brightness Sun altitude
Rises 23:09:24 0° 249° (WSW) 4,660 - -73.3°
Reaches altitude 10° 23:13:16 10° 263° (W) 3,660 - -73.7°
Maximum altitude 23:20:06 23° 312° (NW) 2,743 - -74.4°
Drops below altitude 10° 23:26:57 10° 1° (N) 3,648 - -75.0°
Sets 23:30:51 0° 16° (NNE) 4,640 - -75.2°
